Weather History for Lawrenceville, IL

Change the Weather History Date:

Monday, February 18, 2013

  Actual Average Record
Temperature  
Mean Temperature 46 °F 36 °F  
Max Temperature 61 °F 45 °F 64 °F (1997)
Min Temperature 31 °F 28 °F -5 °F (1993)
Degree Days  
Heating Degree Days 19 29  
Month to date heating degree days 530 557  
Since 1 July heating degree days 3384 3408  
Cooling Degree Days 0 0  
Month to date cooling degree days 0 0  
Year to date cooling degree days 0 0  
Moisture  
Dew Point 36 °F    
Average Humidity 63    
Maximum Humidity 86    
Minimum Humidity 40    
Precipitation  
Precipitation 0.48 in 0.07 in 1.29 in (2000)
Month to date precipitation 1.02 1.37  
Year to date precipitation 7.43 3.75  
Sea Level Pressure  
Sea Level Pressure 29.81 in    
Wind  
Wind Speed 21 mph (SSW)    
Max Wind Speed 41 mph    
Max Gust Speed 53 mph    
Visibility 8 miles    
Events Rain    
T = Trace of Precipitation, MM = Missing Value Source: NWS Daily Summary

Daily Weather History Graph

Daily Weather History Graph

Search for Another Location

Airport:

Trip Planner

Search our weather history database for the weather conditions in past years. The results will help you decide how hot, cold, wet, or windy it might be!

Date:

Astronomy

Feb. 18, 2013 Rise Set
Actual Time 6:37 AM CST 5:31 PM CST
Civil Twilight 6:10 AM CST 5:58 PM CST
Nautical Twilight 5:39 AM CST 6:29 PM CST
Astronomical Twilight 5:08 AM CST 7:00 PM CST
Moon 11:19 AM CST (2/18) 1:15 AM CST (2/18)
Length of Visible Light 11h 48m
Length of Day
10h 54m
First Quarter, 58% of the Moon is Illuminated
Feb 18
First Quarter
Feb 25
Full
Mar 4
Last Quarter
Mar 11
New
Mar 19
First Quarter

Hourly Weather History & Observations

Time (CST) Temp. Windchill Dew Point Humidity Pressure Visibility Wind Dir Wind Speed Gust Speed Precip Events Conditions
12:53 AM 33.1 °F 24.4 °F 19.0 °F 56% 30.08 in 10.0 mi SSE 11.5 mph - N/A   Clear
1:53 AM 32.0 °F 23.6 °F 19.9 °F 61% 30.06 in 10.0 mi SE 10.4 mph - N/A   Clear
2:53 AM 30.9 °F 22.8 °F 21.0 °F 67% 30.03 in 10.0 mi SSE 9.2 mph - N/A   Clear
3:53 AM 35.1 °F 26.9 °F 21.9 °F 59% 30.02 in 10.0 mi SSE 11.5 mph - N/A   Clear
4:53 AM 36.0 °F 26.7 °F 21.9 °F 57% 30.01 in 10.0 mi SSE 15.0 mph - N/A   Clear
5:53 AM 35.1 °F 26.4 °F 23.0 °F 61% 30.00 in 10.0 mi South 12.7 mph - N/A   Clear
6:53 AM 35.1 °F 25.9 °F 24.1 °F 64% 29.99 in 10.0 mi South 13.8 mph - N/A   Clear
8:53 AM 44.1 °F 35.7 °F 30.9 °F 60% 29.97 in 10.0 mi South 20.7 mph 26.5 mph N/A   Clear
9:53 AM 48.9 °F - 35.1 °F 59% 29.95 in 10.0 mi South 20.7 mph 26.5 mph N/A   Clear
10:53 AM 55.0 °F - 39.9 °F 57% 29.94 in 10.0 mi South 20.7 mph 31.1 mph N/A   Clear
11:53 AM 55.9 °F - 41.0 °F 57% 29.91 in 10.0 mi SSW 28.8 mph 38.0 mph N/A   Partly Cloudy
12:53 PM 59.0 °F - 39.9 °F 49% 29.86 in 10.0 mi SSW 23.0 mph 35.7 mph N/A   Mostly Cloudy
1:53 PM 59.0 °F - 36.0 °F 42% 29.82 in 10.0 mi SSW 29.9 mph 35.7 mph N/A   Overcast
2:53 PM 57.0 °F - 35.1 °F 44% 29.81 in 9.0 mi South 26.5 mph 33.4 mph 0.00 in Rain Light Rain
3:53 PM 52.0 °F - 39.0 °F 61% 29.81 in 8.0 mi SSW 26.5 mph 35.7 mph 0.00 in Rain Light Rain
4:53 PM 50.0 °F - 42.1 °F 74% 29.77 in 5.0 mi South 18.4 mph 23.0 mph 0.06 in Rain Light Rain
5:53 PM 50.0 °F - 42.1 °F 74% 29.73 in 10.0 mi South 26.5 mph 38.0 mph 0.01 in Rain Light Rain
6:53 PM 48.0 °F - 43.0 °F 83% 29.70 in 5.0 mi South 24.2 mph 34.5 mph 0.05 in Rain Light Rain
7:53 PM 48.0 °F - 44.1 °F 86% 29.66 in 10.0 mi South 29.9 mph 38.0 mph 0.06 in Rain Light Rain
8:28 PM 48.2 °F - 44.6 °F 87% 29.68 in 2.5 mi South 21.9 mph 29.9 mph 0.11 in Rain Heavy Rain
8:39 PM 48.2 °F - 44.6 °F 87% 29.67 in 3.0 mi South 23.0 mph 31.1 mph 0.14 in Rain Rain
8:53 PM 48.0 °F - 44.1 °F 86% 29.67 in 3.0 mi South 21.9 mph 31.1 mph 0.18 in Rain Rain
9:40 PM 48.2 °F - 44.6 °F 87% 29.63 in 10.0 mi SSW 21.9 mph 34.5 mph 0.01 in   Overcast
9:49 PM 48.2 °F - 44.6 °F 87% 29.63 in 9.0 mi South 27.6 mph 35.7 mph 0.01 in   Overcast
9:53 PM 48.9 °F - 45.0 °F 86% 29.64 in 8.0 mi South 25.3 mph 35.7 mph 0.01 in   Overcast
10:15 PM 48.2 °F - 44.6 °F 87% 29.64 in 4.0 mi SSW 25.3 mph 35.7 mph 0.02 in Rain Rain
10:29 PM 48.2 °F - 46.4 °F 93% 29.66 in 2.0 mi SSW 20.7 mph 31.1 mph 0.06 in Rain Rain
10:53 PM 42.1 °F 31.7 °F - N/A% 29.71 in 3.0 mi WNW 27.6 mph 40.3 mph 0.10 in Rain Rain
10:57 PM 42.8 °F 31.9 °F - N/A% 29.71 in 3.0 mi WNW 32.2 mph 39.1 mph 0.01 in Rain Light Rain
11:06 PM 39.2 °F 27.8 °F - N/A% 29.73 in 4.0 mi WNW 27.6 mph 39.1 mph 0.01 in Rain Light Rain
11:17 PM 39.2 °F 28.5 °F 39.2 °F 100% 29.74 in 6.0 mi WNW 24.2 mph 34.5 mph 0.01 in Rain Light Rain
11:36 PM 39.2 °F 28.0 °F 39.2 °F 100% 29.75 in 7.0 mi WNW 26.5 mph 34.5 mph 0.01 in   Overcast
11:53 PM 39.0 °F 27.2 °F - N/A% 29.78 in 8.0 mi WNW 29.9 mph 35.7 mph 0.01 in   Overcast